Time,TemperatureF,DewpointF,PressureIn,WindDirection,WindDirectionDegrees,WindSpeedMPH,WindSpeedGustMPH,Humidity,HourlyPrecipIn,Conditions,Clouds,dailyrainin,SolarRadiationWatts/m^2,SoftwareType,DateUTC
2013-10-27 01:22:00,29.0,26.0,-100.00,SSW,197,5.0,6.0,87,-99.99,,,0.00,0.000000,,2013-10-27 06:22:00,
2013-10-27 01:32:00,29.0,26.0,-100.00,SSW,197,5.0,6.0,87,-99.99,,,0.00,0.000000,,2013-10-27 06:32:00,
2013-10-27 01:42:00,29.0,26.0,-100.00,SSW,197,5.0,6.0,87,-99.99,,,0.00,0.000000,,2013-10-27 06:42:00,
2013-10-27 01:53:00,29.0,26.0,-100.00,SSW,197,5.0,6.0,87,-99.99,,,0.00,0.000000,,2013-10-27 06:53:00,
2013-10-27 02:22:00,30.0,26.0,-100.00,SSW,199,6.0,7.0,85,0.00,,,0.00,0.000000,,2013-10-27 07:22:00,
2013-10-27 02:32:00,30.0,26.0,-100.00,SSW,199,6.0,7.0,85,0.00,,,0.00,0.000000,,2013-10-27 07:32:00,
2013-10-27 02:42:00,30.0,26.0,-100.00,SSW,199,6.0,7.0,85,0.00,,,0.00,0.000000,,2013-10-27 07:42:00,
2013-10-27 02:52:00,30.0,26.0,-100.00,SSW,199,6.0,7.0,85,0.00,,,0.00,0.000000,,2013-10-27 07:52:00,
2013-10-27 03:22:00,29.0,25.0,-100.00,SSW,196,6.0,8.0,86,0.00,,,0.00,0.000000,,2013-10-27 08:22:00,
2013-10-27 03:32:00,29.0,25.0,-100.00,SSW,196,6.0,8.0,86,0.00,,,0.00,0.000000,,2013-10-27 08:32:00,
2013-10-27 03:42:00,29.0,25.0,-100.00,SSW,196,6.0,8.0,86,0.00,,,0.00,0.000000,,2013-10-27 08:42:00,
2013-10-27 03:52:00,29.0,25.0,-100.00,SSW,196,6.0,8.0,86,0.00,,,0.00,0.000000,,2013-10-27 08:52:00,
2013-10-27 04:21:00,30.0,27.0,-100.00,SSW,210,6.0,9.0,88,0.00,,,0.00,0.000000,,2013-10-27 09:21:00,
2013-10-27 04:33:00,30.0,27.0,-100.00,SSW,210,6.0,9.0,88,0.00,,,0.00,0.000000,,2013-10-27 09:33:00,
2013-10-27 04:43:00,30.0,27.0,-100.00,SSW,210,6.0,9.0,88,0.00,,,0.00,0.000000,,2013-10-27 09:43:00,
2013-10-27 04:53:00,30.0,27.0,-100.00,SSW,210,6.0,9.0,88,0.00,,,0.00,0.000000,,2013-10-27 09:53:00,
2013-10-27 05:42:00,29.0,26.0,-100.00,SSW,203,5.0,7.0,87,0.00,,,0.00,0.000000,,2013-10-27 10:42:00,
2013-10-27 05:53:00,29.0,26.0,-100.00,SSW,203,5.0,7.0,87,0.00,,,0.00,0.000000,,2013-10-27 10:53:00,
2013-10-27 06:22:00,29.0,26.0,-100.00,SSW,192,4.0,5.0,87,0.00,,,0.00,0.000000,,2013-10-27 11:22:00,
2013-10-27 06:33:00,29.0,26.0,-100.00,SSW,192,4.0,5.0,87,0.00,,,0.00,0.000000,,2013-10-27 11:33:00,
2013-10-27 06:42:00,29.0,26.0,-100.00,SSW,192,4.0,5.0,87,0.00,,,0.00,0.000000,,2013-10-27 11:42:00,
2013-10-27 06:52:00,29.0,26.0,-100.00,SSW,192,4.0,5.0,87,0.00,,,0.00,0.000000,,2013-10-27 11:52:00,
2013-10-27 07:22:00,31.0,27.0,-100.00,SSW,193,5.0,7.0,84,0.00,,,0.00,0.000000,,2013-10-27 12:22:00,
2013-10-27 07:32:00,31.0,27.0,-100.00,SSW,193,5.0,7.0,84,0.00,,,0.00,0.000000,,2013-10-27 12:32:00,
2013-10-27 07:42:00,31.0,27.0,-100.00,SSW,193,5.0,7.0,84,0.00,,,0.00,0.000000,,2013-10-27 12:42:00,
2013-10-27 07:52:00,31.0,27.0,-100.00,SSW,193,5.0,7.0,84,0.00,,,0.00,0.000000,,2013-10-27 12:52:00,
2013-10-27 08:21:00,35.0,29.0,-100.00,SSW,197,7.0,9.0,78,0.00,,,0.00,0.000000,,2013-10-27 13:21:00,
2013-10-27 08:32:00,35.0,29.0,-100.00,SSW,197,7.0,9.0,78,0.00,,,0.00,0.000000,,2013-10-27 13:32:00,
2013-10-27 08:42:00,35.0,29.0,-100.00,SSW,197,7.0,9.0,78,0.00,,,0.00,0.000000,,2013-10-27 13:42:00,
2013-10-27 08:52:00,35.0,29.0,-100.00,SSW,197,7.0,9.0,78,0.00,,,0.00,0.000000,,2013-10-27 13:52:00,
2013-10-27 09:22:00,41.0,33.0,-100.00,SSW,201,8.0,11.0,72,0.00,,,0.00,0.000000,,2013-10-27 14:22:00,
2013-10-27 09:32:00,41.0,33.0,-100.00,SSW,201,8.0,11.0,72,0.00,,,0.00,0.000000,,2013-10-27 14:32:00,
2013-10-27 09:42:00,41.0,33.0,-100.00,SSW,201,8.0,11.0,72,0.00,,,0.00,0.000000,,2013-10-27 14:42:00,
2013-10-27 09:52:00,41.0,33.0,-100.00,SSW,201,8.0,11.0,72,0.00,,,0.00,0.000000,,2013-10-27 14:52:00,
2013-10-27 10:22:00,48.0,34.0,-100.00,SSW,202,12.0,17.0,59,0.00,,,0.00,0.000000,,2013-10-27 15:22:00,
2013-10-27 10:34:00,48.0,34.0,-100.00,SSW,202,12.0,17.0,59,0.00,,,0.00,0.000000,,2013-10-27 15:34:00,
2013-10-27 10:44:00,48.0,34.0,-100.00,SSW,202,12.0,17.0,59,0.00,,,0.00,0.000000,,2013-10-27 15:44:00,
2013-10-27 10:54:00,48.0,34.0,-100.00,SSW,202,12.0,17.0,59,0.00,,,0.00,0.000000,,2013-10-27 15:54:00,
2013-10-27 11:43:00,57.0,36.0,-100.00,SW,214,14.0,21.0,46,0.00,,,0.00,0.000000,,2013-10-27 16:43:00,
2013-10-27 11:53:00,57.0,36.0,-100.00,SW,214,14.0,21.0,46,0.00,,,0.00,0.000000,,2013-10-27 16:53:00,
2013-10-27 12:22:00,63.0,38.0,-100.00,SSW,210,16.0,23.0,39,0.00,,,0.00,0.000000,,2013-10-27 17:22:00,
2013-10-27 12:34:00,63.0,38.0,-100.00,SSW,210,16.0,23.0,39,0.00,,,0.00,0.000000,,2013-10-27 17:34:00,
2013-10-27 12:43:00,63.0,38.0,-100.00,SSW,210,16.0,23.0,39,0.00,,,0.00,0.000000,,2013-10-27 17:43:00,
2013-10-27 12:53:00,63.0,38.0,-100.00,SSW,210,16.0,23.0,39,0.00,,,0.00,0.000000,,2013-10-27 17:53:00,
2013-10-27 13:43:00,70.0,38.0,-100.00,SSW,211,19.0,27.0,31,0.00,,,0.00,0.000000,,2013-10-27 18:43:00,
2013-10-27 13:52:00,70.0,38.0,-100.00,SSW,211,19.0,27.0,31,0.00,,,0.00,0.000000,,2013-10-27 18:52:00,
2013-10-27 14:22:00,72.0,37.0,-100.00,SSW,208,19.0,28.0,28,0.00,,,0.00,0.000000,,2013-10-27 19:22:00,
2013-10-27 14:32:00,72.0,37.0,-100.00,SSW,208,19.0,28.0,28,0.00,,,0.00,0.000000,,2013-10-27 19:32:00,
2013-10-27 14:42:00,72.0,37.0,-100.00,SSW,208,19.0,28.0,28,0.00,,,0.00,0.000000,,2013-10-27 19:42:00,
2013-10-27 14:52:00,72.0,37.0,-100.00,SSW,208,19.0,28.0,28,0.00,,,0.00,0.000000,,2013-10-27 19:52:00,
2013-10-27 15:22:00,74.0,39.0,-100.00,SW,219,18.0,26.0,28,0.00,,,0.00,0.000000,,2013-10-27 20:22:00,
2013-10-27 15:32:00,74.0,39.0,-100.00,SW,219,18.0,26.0,28,0.00,,,0.00,0.000000,,2013-10-27 20:32:00,
2013-10-27 15:43:00,74.0,39.0,-100.00,SW,219,18.0,26.0,28,0.00,,,0.00,0.000000,,2013-10-27 20:43:00,
2013-10-27 15:52:00,74.0,39.0,-100.00,SW,219,18.0,26.0,28,0.00,,,0.00,0.000000,,2013-10-27 20:52:00,
2013-10-27 16:21:00,75.0,39.0,-100.00,SW,217,16.0,24.0,27,0.00,,,0.00,0.000000,,2013-10-27 21:21:00,
2013-10-27 16:34:00,75.0,39.0,-100.00,SW,217,16.0,24.0,27,0.00,,,0.00,0.000000,,2013-10-27 21:34:00,
2013-10-27 16:43:00,75.0,39.0,-100.00,SW,217,16.0,24.0,27,0.00,,,0.00,0.000000,,2013-10-27 21:43:00,
2013-10-27 16:54:00,75.0,39.0,-100.00,SW,217,16.0,24.0,27,0.00,,,0.00,0.000000,,2013-10-27 21:54:00,
2013-10-27 17:24:00,75.0,38.0,-100.00,SSW,208,13.0,22.0,26,0.00,,,0.00,0.000000,,2013-10-27 22:24:00,
2013-10-27 17:33:00,75.0,38.0,-100.00,SSW,208,13.0,22.0,26,0.00,,,0.00,0.000000,,2013-10-27 22:33:00,
2013-10-27 17:43:00,75.0,38.0,-100.00,SSW,208,13.0,22.0,26,0.00,,,0.00,0.000000,,2013-10-27 22:43:00,
2013-10-27 17:54:00,75.0,38.0,-100.00,SSW,208,13.0,22.0,26,0.00,,,0.00,0.000000,,2013-10-27 22:54:00,
2013-10-27 18:22:00,71.0,36.0,-100.00,SSW,197,9.0,17.0,28,0.00,,,0.00,0.000000,,2013-10-27 23:22:00,
2013-10-27 18:33:00,71.0,36.0,-100.00,SSW,197,9.0,17.0,28,0.00,,,0.00,0.000000,,2013-10-27 23:33:00,
2013-10-27 18:42:00,71.0,36.0,-100.00,SSW,197,9.0,17.0,28,0.00,,,0.00,0.000000,,2013-10-27 23:42:00,
2013-10-27 18:52:00,71.0,36.0,-100.00,SSW,197,9.0,17.0,28,0.00,,,0.00,0.000000,,2013-10-27 23:52:00,
2013-10-27 20:21:00,56.0,38.0,-100.00,WSW,255,4.0,9.0,50,0.00,,,0.00,0.000000,,2013-10-28 01:21:00,
2013-10-27 20:32:00,56.0,38.0,-100.00,WSW,255,4.0,9.0,50,0.00,,,0.00,0.000000,,2013-10-28 01:32:00,
2013-10-27 20:42:00,56.0,38.0,-100.00,WSW,255,4.0,9.0,50,0.00,,,0.00,0.000000,,2013-10-28 01:42:00,
2013-10-27 20:52:00,56.0,38.0,-100.00,WSW,255,4.0,9.0,50,0.00,,,0.00,0.000000,,2013-10-28 01:52:00,
2013-10-27 21:22:00,57.0,38.0,-100.00,WNW,301,3.0,6.0,48,0.00,,,0.00,0.000000,,2013-10-28 02:22:00,
2013-10-27 21:32:00,57.0,38.0,-100.00,WNW,301,3.0,6.0,48,0.00,,,0.00,0.000000,,2013-10-28 02:32:00,
2013-10-27 21:42:00,57.0,38.0,-100.00,WNW,301,3.0,6.0,48,0.00,,,0.00,0.000000,,2013-10-28 02:42:00,
2013-10-27 21:53:00,57.0,38.0,-100.00,WNW,301,3.0,6.0,48,0.00,,,0.00,0.000000,,2013-10-28 02:53:00,
2013-10-27 22:22:00,53.0,35.0,-100.00,NE,40,4.0,7.0,50,0.00,,,0.00,0.000000,,2013-10-28 03:22:00,
2013-10-27 22:34:00,53.0,35.0,-100.00,NE,40,4.0,7.0,50,0.00,,,0.00,0.000000,,2013-10-28 03:34:00,
2013-10-27 22:44:00,53.0,35.0,-100.00,NE,40,4.0,7.0,50,0.00,,,0.00,0.000000,,2013-10-28 03:44:00,
2013-10-27 22:54:00,53.0,35.0,-100.00,NE,40,4.0,7.0,50,0.00,,,0.00,0.000000,,2013-10-28 03:54:00,
2013-10-27 23:23:00,56.0,33.0,-100.00,East,85,3.0,6.0,42,0.00,,,0.00,0.000000,,2013-10-28 04:23:00,
2013-10-27 23:34:00,56.0,33.0,-100.00,East,85,3.0,6.0,42,0.00,,,0.00,0.000000,,2013-10-28 04:34:00,